Westhampton Beach, NY

11:54 AM EDT on September 25, 2017 (GMT -0400)
The Gabreski

Weather History for KFOK - November, 2011

Change the Weather History Date:

Tuesday, November 8, 2011

  Actual Average Record
Temperature  
Mean Temperature 52 °F -  
Max Temperature 68 °F 52 °F 68 °F (2011)
Min Temperature 35 °F 33 °F 23 °F (2016)
Degree Days  
Heating Degree Days 14    
Growing Degree Days 2 (Base 50)    
Moisture  
Dew Point 40 °F    
Average Humidity 84    
Maximum Humidity 100    
Minimum Humidity 50    
Precipitation  
Precipitation 0.00 in - - ()
Sea Level Pressure  
Sea Level Pressure 30.26 in    
Wind  
Wind Speed 1 mph (ENE)    
Max Wind Speed 9 mph    
Max Gust Speed -    
Visibility 6 miles    
Events Fog    
Averages and records for this station are not official NWS values.
T = Trace of Precipitation, MM = Missing Value Source: NWS Daily Summary

Daily Weather History Graph

Daily Weather History Graph

Search for Another Location

Airport or City:

Trip Planner

Search our weather history database for the weather conditions in past years. The results will help you decide how hot, cold, wet, or windy it might be!

Date:

Astronomy

Nov. 08, 2011 Rise Set
Actual Time 6:28 AM EST 4:39 PM EST
Civil Twilight 6:00 AM EST 5:07 PM EST
Nautical Twilight 5:27 AM EST 5:40 PM EST
Astronomical Twilight 4:55 AM EST 6:12 PM EST
Moon 3:17 PM EST (11/8) 4:24 AM EST (11/8)
Length of Visible Light 11h 07m
Length of Day
10h 10m
Waxing Gibbous, 96% of the Moon is Illuminated
Nov 8
Waxing Gibbous
Nov 10
Full
Nov 18
Last Quarter
Nov 25
New
Dec 2
First Quarter

Hourly Weather History & Observations

Time (EST) Temp. Windchill Dew Point Humidity Pressure Visibility Wind Dir Wind Speed Gust Speed Precip Events Conditions
12:06 AM 35.6 °F - 35.6 °F 100% 30.26 in 6.0 mi Calm Calm - N/A   Mostly Cloudy
12:46 AM 37.4 °F - 35.6 °F 93% 30.26 in 7.0 mi Calm Calm - N/A   Scattered Clouds
12:53 AM 37.0 °F - 36.0 °F 96% 30.27 in 9.0 mi Calm Calm - N/A   Partly Cloudy
1:53 AM 36.0 °F - 35.1 °F 97% 30.26 in 4.0 mi Calm Calm - N/A   Scattered Clouds
2:19 AM 37.4 °F - 35.6 °F 93% 30.25 in 9.0 mi Calm Calm - N/A   Scattered Clouds
2:53 AM 37.0 °F - 35.1 °F 93% 30.25 in 6.0 mi Calm Calm - N/A   Clear
3:26 AM 37.4 °F - 35.6 °F 93% 30.24 in 7.0 mi Calm Calm - N/A   Scattered Clouds
3:51 AM 35.6 °F - 33.8 °F 93% 30.24 in 5.0 mi Calm Calm - N/A   Mostly Cloudy
4:26 AM 35.6 °F - 33.8 °F 93% 30.25 in 7.0 mi Calm Calm - N/A   Partly Cloudy
5:07 AM 35.6 °F - 33.8 °F 93% 30.26 in 7.0 mi Calm Calm - N/A   Scattered Clouds
5:16 AM 35.6 °F - 35.6 °F 100% 30.26 in 8.0 mi Calm Calm - N/A   Mostly Cloudy
5:23 AM 35.6 °F - 33.8 °F 93% 30.26 in 7.0 mi Calm Calm - N/A   Scattered Clouds
5:53 AM 36.0 °F - 34.0 °F 93% 30.27 in 9.0 mi Calm Calm - N/A   Clear
6:18 AM 35.6 °F - 33.8 °F 93% 30.27 in 7.0 mi Calm Calm - N/A   Partly Cloudy
6:53 AM 37.0 °F 34.5 °F 34.0 °F 89% 30.27 in 6.0 mi NNE 3.5 mph - N/A   Clear
7:53 AM 48.0 °F - 45.0 °F 89% 30.29 in 7.0 mi Calm Calm - N/A   Clear
8:53 AM 57.9 °F - 50.0 °F 75% 30.29 in 10.0 mi NNW 4.6 mph - N/A   Clear
9:53 AM 64.0 °F - 46.9 °F 54% 30.29 in 10.0 mi ENE 4.6 mph - N/A   Clear
10:53 AM 66.9 °F - 48.0 °F 51% 30.28 in 10.0 mi ENE 9.2 mph - N/A   Clear
11:53 AM 66.9 °F - 48.9 °F 52% 30.26 in 10.0 mi ENE 6.9 mph - N/A   Clear
12:53 PM 68.0 °F - 48.9 °F 50% 30.24 in 10.0 mi ENE 4.6 mph - N/A   Clear
1:53 PM 68.0 °F - 48.9 °F 50% 30.23 in 10.0 mi SSE 6.9 mph - N/A   Clear
2:53 PM 63.0 °F - 48.9 °F 60% 30.23 in 10.0 mi South 6.9 mph - N/A   Clear
3:53 PM 61.0 °F - 48.0 °F 62% 30.23 in 10.0 mi South 3.5 mph - N/A   Clear
4:53 PM 54.0 °F - 48.0 °F 80% 30.24 in 10.0 mi Calm Calm - N/A   Clear
5:53 PM 48.0 °F - 44.1 °F 86% 30.26 in 10.0 mi Calm Calm - N/A   Clear
6:53 PM 46.0 °F - 44.1 °F 93% 30.26 in 5.0 mi Calm Calm - N/A   Clear
7:46 PM 44.6 °F - 41.0 °F 87% 30.26 in 8.0 mi Calm Calm - N/A   Partly Cloudy
7:53 PM 44.1 °F - 41.0 °F 89% 30.26 in 5.0 mi Calm Calm - N/A   Scattered Clouds
8:04 PM 44.6 °F - 39.2 °F 81% 30.26 in 4.0 mi Calm Calm - N/A   Mostly Cloudy
8:36 PM 42.8 °F - 39.2 °F 87% 30.26 in 1.5 mi Calm Calm - N/A   Overcast
8:44 PM 42.8 °F - 39.2 °F 87% 30.26 in 1.0 mi Calm Calm - N/A   Mist
8:51 PM 42.8 °F - 39.2 °F 87% 30.26 in 0.2 mi Calm Calm - N/A Fog Fog
8:53 PM 42.1 °F - 39.9 °F 92% 30.26 in 0.2 mi Calm Calm - N/A Fog Fog
9:53 PM 41.0 °F - 39.9 °F 96% 30.26 in 0.2 mi Calm Calm - N/A Fog Fog
10:53 PM 43.0 °F 41.3 °F 42.1 °F 97% 30.25 in 0.2 mi NNW 3.5 mph - N/A Fog Fog
11:53 PM 43.0 °F - 42.1 °F 97% 30.25 in 0.2 mi Calm Calm - N/A Fog Fog